Location: Bailleul
(50.3375°N, 2.8513°E)
Time: 05:11:53
(UTC+00:00)

Timation 2 Rocket - Pass Details

Date: 19 April 2021
Orbit: 907 x 1074 km, 70.0° (Epoch: 09 May)

Event Time Altitude Azimuth Distance (km) Brightness Sun altitude
Rises 20:35:33 0° 187° (S) 3,782 6.8 -15.4°
Reaches altitude 10° 20:38:16 10° 181° (S) 2,811 6.0 -15.7°
Maximum altitude 20:44:28 46° 111° (ESE) 1,313 4.3 -16.4°
Drops below altitude 10° 20:50:27 10° 40° (NE) 2,715 6.4 -17.1°
Sets 20:53:02 0° 35° (NE) 3,641 7.1 -17.4°
